This is the latest recevied weather packets stored in our database for station/object VA2CPJ. If no packets are shown the sender has not sent any weather packets the latest 10 day(s).
| Time | Temp. | Humidity | Pressure | Rain* | Wind** | Luminosity | Snow |
|---|---|---|---|---|---|---|---|
| 1777683659 | 6.11° C | 61% | 1019.5 hPa | - | - | 0 W/m² | - |
| 1777682460 | 6.67° C | 61% | 1019.5 hPa | - | - | 0 W/m² | - |
| 1777680325 | 6.67° C | 60% | 1020.1 hPa | - | - | 95 W/m² | - |
| 1777679144 | 6.67° C | 59% | 1019.5 hPa | - | - | 665 W/m² | - |
| 1777678849 | 6.67° C | 59% | 1018.8 hPa | - | - | 961 W/m² | - |
| 1777677945 | 6.67° C | 60% | 1019.5 hPa | - | - | 1611 W/m² | - |
| 1777676468 | 7.22° C | 59% | 1018.4 hPa | - | - | - | - |
| 1777676125 | 7.22° C | 58% | 1019.5 hPa | - | - | - | - |
| 1777675548 | 7.22° C | 58% | 1019.1 hPa | - | - | - | - |
| 1777674341 | 7.22° C | 58% | 1019.5 hPa | - | - | - | - |
| 1777674036 | 7.22° C | 58% | 1018.4 hPa | - | - | - | - |
| 1777673124 | 7.78° C | 57% | 1019.1 hPa | - | - | - | - |
| 1777671338 | 7.78° C | 61% | 1018.8 hPa | - | - | - | - |
| 1777670726 | 7.22° C | 64% | 1018.8 hPa | - | - | - | - |
| 1777667418 | 7.78° C | 67% | 1017.4 hPa | - | - | - | - |
| 1777666526 | 7.22° C | 66% | 1018.1 hPa | - | - | - | - |
| 1777664741 | 7.22° C | 66% | 1017.7 hPa | - | - | - | - |
| 1777664120 | 7.78° C | 65% | 1017.7 hPa | - | - | - | - |
| 1777662020 | 7.22° C | 65% | 1017.1 hPa | - | - | - | - |
| 1777661425 | 7.22° C | 66% | 1016.7 hPa | - | - | - | - |
| 1777661145 | 7.22° C | 66% | 1017.4 hPa | - | - | - | - |
| 1777659631 | 7.22° C | 66% | 1016.7 hPa | - | - | - | - |
| 1777656046 | 7.22° C | 70% | 1016.4 hPa | - | - | - | - |
| 1777654521 | 6.67° C | 71% | 1017.1 hPa | - | - | - | - |
| 1777652184 | 6.11° C | 76% | 1017.4 hPa | - | - | - | - |
* Rain since midnight (hover to see other rain measurements)
** Current wind speed in m/s (hover to see current wind gust speed)